This is the latest recevied weather packets stored in our database for station/object W3TMB. If no packets are shown the sender has not sent any weather packets the latest 10 day(s).
| Time | Temp. | Humidity | Pressure | Rain* | Wind** | Luminosity | Snow |
|---|---|---|---|---|---|---|---|
| 1777464295 | 12.22° C | 84% | 1011.5 hPa | 0 mm | - | 35 W/m² | - |
| 1777463990 | 12.22° C | 85% | 1011.6 hPa | 0 mm | - | 29 W/m² | - |
| 1777463686 | 12.22° C | 86% | 1011.7 hPa | 0 mm | - | 36 W/m² | - |
| 1777463381 | 11.67° C | 85% | 1011.7 hPa | 0 mm | - | 39 W/m² | - |
| 1777463078 | 11.67° C | 85% | 1011.8 hPa | 0 mm | - | 35 W/m² | - |
| 1777462773 | 11.67° C | 86% | 1011.6 hPa | 0 mm | - | 27 W/m² | - |
| 1777462468 | 11.67° C | 86% | 1011.9 hPa | 0 mm | - | 23 W/m² | - |
| 1777462165 | 11.67° C | 87% | 1011.9 hPa | 0 mm | - | 23 W/m² | - |
| 1777461862 | 11.67° C | 86% | 1011.9 hPa | 0 mm | - | 19 W/m² | - |
| 1777461558 | 11.67° C | 86% | 1011.9 hPa | 0 mm | - | 16 W/m² | - |
| 1777461254 | 11.67° C | 86% | 1011.9 hPa | 0 mm | - | 16 W/m² | - |
| 1777460949 | 11.67° C | 87% | 1012.1 hPa | 0 mm | - | 14 W/m² | - |
| 1777460645 | 11.67° C | 86% | 1011.8 hPa | 0 mm | - | 12 W/m² | - |
| 1777460341 | 11.67° C | 87% | 1011.8 hPa | 0 mm | - | 10 W/m² | - |
| 1777460037 | 11.67° C | 87% | 1011.9 hPa | 0 mm | - | 10 W/m² | - |
| 1777459734 | 11.67° C | 86% | 1012 hPa | 0 mm | - | 8 W/m² | - |
| 1777459431 | 11.11° C | 87% | 1011.9 hPa | 0 mm | - | 6 W/m² | - |
| 1777459129 | 11.11° C | 87% | 1011.7 hPa | 0 mm | - | 3 W/m² | - |
| 1777458826 | 11.11° C | 87% | 1011.6 hPa | 0 mm | - | 3 W/m² | - |
| 1777458522 | 11.11° C | 87% | 1011.7 hPa | 0 mm | - | 3 W/m² | - |
| 1777458220 | 11.11° C | 87% | 1011.8 hPa | 0 mm | - | 3 W/m² | - |
| 1777457914 | 11.11° C | 87% | 1011.5 hPa | 0 mm | - | 0 W/m² | - |
| 1777457611 | 11.11° C | 87% | 1011.8 hPa | 0 mm | - | 0 W/m² | - |
| 1777457305 | 11.11° C | 88% | 1011.7 hPa | 0 mm | - | 0 W/m² | - |
| 1777457001 | 11.11° C | 88% | 1011.7 hPa | 0 mm | - | 0 W/m² | - |
* Rain latest hour (hover to see other rain measurements)
** Current wind speed in m/s (hover to see current wind gust speed)